^^
Caerphilly Weather Station Historical Data
 
Daily Summary for April 23, 2019 Units:  Metric    English   Both
Daily Weekly Monthly Yearly Custom
  Current: High: Low: Average:
Temperature: 18.4 °C 18.4 °C 13.2 °C 15.1 °C
Dew Point: 9.4 °C 11.1 °C 7.5 °C 9.1 °C
Humidity: 56% 80% 55% 68%
Wind Speed: 0.0km/h 1.9km/h 0.0km/h 0km/h
Wind Gust: 0.0km/h 8.0km/h - -
WindCalm - - East
Pressure: 996.0 hPa 1000.1 hPa 995.9 hPa -
Precipitation: 0.0 mm      
Historical Graphs
 
 
Tabular Data for April 23, 2019
Time Temperature Dew Point Pressure Wind Wind Speed Wind Gust Humidity Rainfall Rate (Hourly) solar
00:00 15.0 °C 10.8 °C 1000.1 hPa Calm     76% 0.0 mm 0.00 W/m2
00:05 15.0 °C 11.0 °C 1000.1 hPa Calm     77% 0.0 mm 0.00 W/m2
00:10 15.0 °C 11.0 °C 1000.1 hPa Calm     77% 0.0 mm 0.00 W/m2
00:15 15.0 °C 11.0 °C 1000.0 hPa Calm     77% 0.0 mm 0.00 W/m2
00:20 14.9 °C 11.1 °C 1000.0 hPa Calm     78% 0.0 mm 0.00 W/m2
00:25 14.8 °C 11.1 °C 999.9 hPa Calm     78% 0.0 mm 0.00 W/m2
00:30 14.8 °C 11.0 °C 999.9 hPa Calm     78% 0.0 mm 0.00 W/m2
00:35 14.7 °C 10.9 °C 999.8 hPa Calm     78% 0.0 mm 0.00 W/m2
00:40 14.7 °C 10.9 °C 999.8 hPa Calm     78% 0.0 mm 0.00 W/m2
00:45 14.6 °C 10.8 °C 999.8 hPa Calm     78% 0.0 mm 0.00 W/m2
00:50 14.5 °C 10.7 °C 999.8 hPa Calm     78% 0.0 mm 0.00 W/m2
00:55 14.5 °C 10.5 °C 999.8 hPa Calm     77% 0.0 mm 0.00 W/m2
01:00 14.4 °C 10.4 °C 999.8 hPa Calm     77% 0.0 mm 0.00 W/m2
01:05 14.4 °C 10.4 °C 999.8 hPa Calm     77% 0.0 mm 0.00 W/m2
01:10 14.4 °C 10.4 °C 999.7 hPa Calm     77% 0.0 mm 0.00 W/m2
01:15 14.3 °C 10.3 °C 999.6 hPa Calm     77% 0.0 mm 0.00 W/m2
01:20 14.3 °C 10.3 °C 999.5 hPa Calm     77% 0.0 mm 0.00 W/m2
01:25 14.3 °C 10.3 °C 999.5 hPa Calm     77% 0.0 mm 0.00 W/m2
01:30 14.2 °C 10.2 °C 999.5 hPa Calm     77% 0.0 mm 0.00 W/m2
01:35 14.1 °C 10.3 °C 999.5 hPa Calm     78% 0.0 mm 0.00 W/m2
01:40 14.0 °C 10.2 °C 999.4 hPa Calm     78% 0.0 mm 0.00 W/m2
01:45 13.9 °C 10.1 °C 999.4 hPa Calm     78% 0.0 mm 0.00 W/m2
01:50 13.8 °C 10.1 °C 999.4 hPa Calm     78% 0.0 mm 0.00 W/m2
01:55 13.8 °C 10.0 °C 999.4 hPa Calm     78% 0.0 mm 0.00 W/m2
02:00 13.7 °C 9.9 °C 999.4 hPa Calm     78% 0.0 mm 0.00 W/m2
02:05 13.7 °C 10.1 °C 999.3 hPa Calm     79% 0.0 mm 0.00 W/m2
02:10 13.6 °C 10.1 °C 999.3 hPa Calm     79% 0.0 mm 0.00 W/m2
02:15 13.6 °C 10.0 °C 999.2 hPa Calm     79% 0.0 mm 0.00 W/m2
02:20 13.6 °C 10.0 °C 999.1 hPa Calm     79% 0.0 mm 0.00 W/m2
02:25 13.5 °C 9.9 °C 999.1 hPa Calm     79% 0.0 mm 0.00 W/m2
02:30 13.4 °C 9.9 °C 998.9 hPa Calm     79% 0.0 mm 0.00 W/m2
02:35 13.3 °C 9.7 °C 999.0 hPa Calm     79% 0.0 mm 0.00 W/m2
02:40 13.3 °C 9.7 °C 998.9 hPa Calm     79% 0.0 mm 0.00 W/m2
02:45 13.3 °C 9.9 °C 998.9 hPa Calm     80% 0.0 mm 0.00 W/m2
02:50 13.4 °C 10.0 °C 998.8 hPa Calm     80% 0.0 mm 0.00 W/m2
02:55 13.5 °C 10.1 °C 998.7 hPa Calm     80% 0.0 mm 0.00 W/m2
03:00 13.5 °C 9.9 °C 998.7 hPa Calm     79% 0.0 mm 0.00 W/m2
03:05 13.6 °C 10.0 °C 998.6 hPa Calm     79% 0.0 mm 0.00 W/m2
03:10 13.6 °C 10.0 °C 998.6 hPa Calm     79% 0.0 mm 0.00 W/m2
03:15 13.6 °C 10.2 °C 998.4 hPa Calm     80% 0.0 mm 0.00 W/m2
03:20 13.6 °C 10.2 °C 998.5 hPa Calm     80% 0.0 mm 0.00 W/m2
03:25 13.6 °C 10.2 °C 998.5 hPa Calm     80% 0.0 mm 0.00 W/m2
03:30 13.6 °C 10.2 °C 998.3 hPa Calm     80% 0.0 mm 0.00 W/m2
03:35 13.6 °C 10.0 °C 998.3 hPa Calm     79% 0.0 mm 0.00 W/m2
03:40 13.6 °C 9.8 °C 998.2 hPa Calm     78% 0.0 mm 0.00 W/m2
03:45 13.6 °C 9.8 °C 998.1 hPa Calm     78% 0.0 mm 0.00 W/m2
03:50 13.6 °C 9.8 °C 998.0 hPa Calm     78% 0.0 mm 0.00 W/m2
03:55 13.6 °C 9.8 °C 997.9 hPa Calm     78% 0.0 mm 0.00 W/m2
04:00 13.5 °C 9.7 °C 997.8 hPa Calm     78% 0.0 mm 0.00 W/m2
04:05 13.4 °C 9.7 °C 997.8 hPa Calm     78% 0.0 mm 0.00 W/m2
04:10 13.4 °C 9.6 °C 997.7 hPa Calm     78% 0.0 mm 0.00 W/m2
04:15 13.3 °C 9.6 °C 997.6 hPa Calm     78% 0.0 mm 0.00 W/m2
04:20 13.3 °C 9.5 °C 997.5 hPa Calm     78% 0.0 mm 0.00 W/m2
04:25 13.2 °C 9.4 °C 997.4 hPa Calm     78% 0.0 mm 0.00 W/m2
04:30 13.2 °C 9.5 °C 997.5 hPa Calm     78% 0.0 mm 0.00 W/m2
04:35 13.2 °C 9.4 °C 997.4 hPa Calm     78% 0.0 mm 0.00 W/m2
04:40 13.2 °C 9.4 °C 997.4 hPa Calm     78% 0.0 mm 0.00 W/m2
04:45 13.2 °C 9.2 °C 997.4 hPa Calm     77% 0.0 mm 0.00 W/m2
04:50 13.2 °C 9.1 °C 997.3 hPa Calm     76% 0.0 mm 0.00 W/m2
04:55 13.3 °C 8.9 °C 997.2 hPa Calm     75% 0.0 mm 0.00 W/m2
05:00 13.3 °C 9.0 °C 997.1 hPa Calm     75% 0.0 mm 0.00 W/m2
05:05 13.6 °C 8.8 °C 997.0 hPa Calm     73% 0.0 mm 0.00 W/m2
05:10 13.8 °C 8.7 °C 996.9 hPa Calm     71% 0.0 mm 0.00 W/m2
05:15 13.9 °C 8.8 °C 996.9 hPa Calm     71% 0.0 mm 0.00 W/m2
05:20 14.0 °C 8.6 °C 996.7 hPa Calm     70% 0.0 mm 0.00 W/m2
05:25 14.0 °C 8.6 °C 996.7 hPa Calm     70% 0.0 mm 0.00 W/m2
05:30 13.9 °C 8.6 °C 996.7 hPa Calm     70% 0.0 mm 0.00 W/m2
05:35 13.9 °C 8.5 °C 996.6 hPa Calm     70% 0.0 mm 0.00 W/m2
05:40 13.8 °C 8.4 °C 996.6 hPa Calm     70% 0.0 mm 0.00 W/m2
05:45 13.8 °C 8.4 °C 996.6 hPa Calm     70% 0.0 mm 0.00 W/m2
05:50 13.7 °C 8.5 °C 996.6 hPa Calm     71% 0.0 mm 0.00 W/m2
05:55 13.6 °C 8.4 °C 996.6 hPa Calm     71% 0.0 mm 0.00 W/m2
06:00 13.5 °C 8.6 °C 996.7 hPa Calm     72% 0.0 mm 0.00 W/m2
06:05 13.4 °C 8.5 °C 996.6 hPa Calm     72% 0.0 mm 0.00 W/m2
06:10 13.5 °C 8.6 °C 996.6 hPa Calm     72% 0.0 mm 0.00 W/m2
06:15 13.5 °C 8.6 °C 996.5 hPa Calm     72% 0.0 mm 0.00 W/m2
06:20 13.5 °C 8.6 °C 996.5 hPa Calm     72% 0.0 mm 0.00 W/m2
06:25 13.6 °C 8.6 °C 996.5 hPa Calm     72% 0.0 mm 0.00 W/m2
06:30 13.6 °C 8.6 °C 996.5 hPa Calm     72% 0.0 mm 0.00 W/m2
06:35 13.6 °C 8.8 °C 996.5 hPa Calm     73% 0.0 mm 7.70 W/m2
06:40 13.7 °C 8.7 °C 996.5 hPa Calm     72% 0.0 mm 12.10 W/m2
06:45 14.0 °C 8.4 °C 996.5 hPa Calm     69% 0.0 mm 15.40 W/m2
06:50 14.2 °C 8.4 °C 996.6 hPa Calm     68% 0.0 mm 15.40 W/m2
06:55 14.4 °C 8.3 °C 996.6 hPa Calm     67% 0.0 mm 19.80 W/m2
07:00 14.6 °C 8.3 °C 996.7 hPa Calm     66% 0.0 mm 20.90 W/m2
07:05 15.0 °C 8.2 °C 996.7 hPa Calm     64% 0.0 mm 25.30 W/m2
07:10 15.2 °C 8.0 °C 996.8 hPa Calm   1.6 km/h 62% 0.0 mm 33.00 W/m2
07:15 15.4 °C 7.9 °C 996.7 hPa Calm   4.8 km/h 61% 0.0 mm 33.00 W/m2
07:20 15.4 °C 7.9 °C 996.7 hPa Calm   4.8 km/h 61% 0.0 mm 40.70 W/m2
07:25 15.3 °C 7.8 °C 996.7 hPa Calm   1.6 km/h 61% 0.0 mm 50.60 W/m2
07:30 15.3 °C 7.8 °C 996.7 hPa Calm   4.8 km/h 61% 0.0 mm 53.90 W/m2
07:35 15.2 °C 8.0 °C 996.7 hPa Calm     62% 0.0 mm 66.00 W/m2
07:40 15.2 °C 7.7 °C 996.7 hPa Calm     61% 0.0 mm 81.40 W/m2
07:45 15.2 °C 7.7 °C 996.7 hPa Calm     61% 0.0 mm 84.70 W/m2
07:50 15.3 °C 7.6 °C 996.6 hPa Calm     60% 0.0 mm 102.30 W/m2
07:55 15.4 °C 7.7 °C 996.6 hPa Calm     60% 0.0 mm 117.70 W/m2
08:00 15.5 °C 7.5 °C 996.6 hPa Calm     59% 0.0 mm 125.40 W/m2
08:05 15.6 °C 7.6 °C 996.6 hPa Calm     59% 0.0 mm 171.60 W/m2
08:10 15.7 °C 7.5 °C 996.6 hPa Calm   1.6 km/h 58% 0.0 mm 211.20 W/m2
08:15 15.9 °C 7.7 °C 996.5 hPa Calm   8.0 km/h 58% 0.0 mm 203.50 W/m2
08:20 16.1 °C 7.8 °C 996.5 hPa Calm   8.0 km/h 58% 0.0 mm 239.80 W/m2
08:25 16.2 °C 7.7 °C 996.5 hPa Calm     57% 0.0 mm 235.40 W/m2
08:30 16.4 °C 7.8 °C 996.4 hPa Calm   1.6 km/h 57% 0.0 mm 243.10 W/m2
08:35 16.6 °C 8.0 °C 996.4 hPa Calm     57% 0.0 mm 251.90 W/m2
08:40 16.7 °C 7.8 °C 996.4 hPa Calm   1.6 km/h 56% 0.0 mm 265.10 W/m2
08:45 16.8 °C 7.9 °C 996.4 hPa Calm     56% 0.0 mm 276.10 W/m2
08:49 16.9 °C 8.1 °C 996.4 hPa Calm     56% 0.0 mm 288.20 W/m2
08:54 17.0 °C 8.2 °C 996.4 hPa Calm     56% 0.0 mm 299.20 W/m2
08:59 17.1 °C 8.3 °C 996.4 hPa Calm     56% 0.0 mm 309.10 W/m2
09:04 17.2 °C 8.3 °C 996.4 hPa Calm     56% 0.0 mm 319.00 W/m2
09:09 17.2 °C 8.4 °C 996.3 hPa Calm     56% 0.0 mm 323.40 W/m2
09:14 17.3 °C 8.4 °C 996.3 hPa Calm     56% 0.0 mm 332.20 W/m2
09:19 17.3 °C 8.2 °C 996.3 hPa Calm     55% 0.0 mm 338.80 W/m2
09:24 17.4 °C 8.3 °C 996.3 hPa Calm     55% 0.0 mm 344.30 W/m2
09:29 17.4 °C 8.6 °C 996.2 hPa Calm     56% 0.0 mm 357.50 W/m2
09:34 17.4 °C 8.6 °C 996.2 hPa Calm     56% 0.0 mm 375.10 W/m2
09:39 17.4 °C 8.6 °C 996.2 hPa Calm     56% 0.0 mm 342.10 W/m2
09:44 17.4 °C 8.6 °C 996.2 hPa Calm     56% 0.0 mm 392.70 W/m2
09:49 17.4 °C 8.6 °C 996.1 hPa Calm     56% 0.0 mm 400.40 W/m2
09:54 17.4 °C 8.5 °C 996.2 hPa Calm     56% 0.0 mm 369.60 W/m2
09:59 17.4 °C 8.5 °C 996.2 hPa Calm     56% 0.0 mm 371.80 W/m2
10:04 17.4 °C 8.5 °C 996.1 hPa Calm     56% 0.0 mm 371.80 W/m2
10:09 17.5 °C 8.6 °C 996.1 hPa Calm     56% 0.0 mm 313.50 W/m2
10:14 17.5 °C 8.6 °C 996.0 hPa Calm     56% 0.0 mm 380.60 W/m2
10:19 17.4 °C 8.5 °C 996.1 hPa East 1.9 km/h   56% 0.0 mm 390.50 W/m2
10:24 17.4 °C 8.8 °C 995.9 hPa Calm     57% 0.0 mm 380.60 W/m2
10:29 17.4 °C 8.8 °C 995.9 hPa Calm     57% 0.0 mm 413.60 W/m2
10:34 17.6 °C 8.7 °C 995.9 hPa Calm     56% 0.0 mm 398.20 W/m2
10:39 17.5 °C 8.3 °C 995.9 hPa Calm     55% 0.0 mm 392.70 W/m2
10:44 17.6 °C 9.0 °C 996.0 hPa Calm     57% 0.0 mm 441.10 W/m2
10:48 17.6 °C 8.7 °C 995.9 hPa Calm     56% 0.0 mm 388.30 W/m2
10:54 17.7 °C 9.3 °C 995.9 hPa Calm     58% 0.0 mm 456.50 W/m2
10:59 17.8 °C 8.9 °C 996.0 hPa Calm     56% 0.0 mm 405.90 W/m2
11:04 17.8 °C 9.2 °C 995.9 hPa East 1.9 km/h 0.3 km/h 57% 0.0 mm 387.20 W/m2
11:09 17.8 °C 9.2 °C 995.9 hPa Calm     57% 0.0 mm 421.30 W/m2
11:14 17.9 °C 9.2 °C 995.9 hPa Calm     57% 0.0 mm 452.10 W/m2
11:19 17.7 °C 9.1 °C 996.0 hPa Calm     57% 0.0 mm 444.40 W/m2
11:24 17.8 °C 9.2 °C 995.9 hPa Calm     57% 0.0 mm 394.90 W/m2
11:29 17.9 °C 9.3 °C 996.0 hPa Calm     57% 0.0 mm 602.80 W/m2
11:34 18.1 °C 9.1 °C 996.0 hPa Calm     56% 0.0 mm 452.10 W/m2
11:39 18.2 °C 9.2 °C 996.0 hPa Calm     56% 0.0 mm 396.00 W/m2
11:44 18.1 °C 9.1 °C 996.0 hPa Calm     56% 0.0 mm 400.40 W/m2
11:49 18.1 °C 9.4 °C 996.0 hPa Calm     57% 0.0 mm 601.70 W/m2
11:54 18.2 °C 9.3 °C 996.0 hPa Calm     56% 0.0 mm 481.80 W/m2
11:59 18.2 °C 9.0 °C 995.9 hPa Calm     55% 0.0 mm 500.50 W/m2
12:04 18.4 °C 9.4 °C 996.0 hPa Calm     56% 0.0 mm 523.60 W/m2
Caerphilly,Wales
Compliments of Weather Underground - 4 mb